QPF
0.00 0.00 0.00 0.00 0.00 0.00 0.00 0.00 0.00 0.00 0.00 0.00 0.00 0.00 0.00 0.00 0.00 0.00 0.00 0.00 0.00 0.00 0.00 0.00 0.00 0.00 0.00 0.00 0.00 0.00 0.00 0.00 0.00 0.00 0.00 0.00 0.00 0.00 0.00 0.00 0.00 0.00
0.00 0.00 0.00 0.00 0.00 0.00 0.00 0.00 0.00 0.00 0.00 0.00 0.00 0.00 0.00 0.00 0.00 0.00 0.00 0.00 0.00 0.00 0.00 0.00 0.00 0.00 0.00 0.00 0.00 0.00 0.00 0.00 0.00 0.00 0.00 0.00 0.00 0.00 0.00 0.00 0.00 0.00
0.00 0.00 0.00 0.00 0.00 0.00 0.00 0.00 0.00 0.00 0.00 0.00 0.00 0.00 0.00 0.00 0.00 0.00 0.00 0.00 0.00 0.00 0.00 0.00 0.00 0.00 0.00 0.00 0.00 0.00 0.00 0.00 0.00 0.00 0.00 0.00 0.00 0.00 0.00 0.00 0.00 0.00
0.00 0.00 0.00 0.00 0.00 0.00 0.00 0.00 0.00 0.00 0.00 0.00 0.00 0.00 0.00 0.00 0.00 0.00 0.00 0.00 0.00 0.00 0.00 0.00 0.00 0.00 0.00 0.00 0.00 0.00 0.00 0.00 0.00 0.00 0.00 0.00 0.00 0.00 0.00 0.00 0.00 0.00
0.00 0.00 0.00 0.00 0.00 0.00 0.00 0.00 0.00 0.00 0.00 0.00 0.00 0.00 0.00 0.00 0.00 0.00 0.00 0.00 0.00 0.00 0.00 0.00 0.00 0.00 0.00 0.00 0.00 0.00 0.00 0.00 0.00 0.00 0.00 0.00 0.00 0.00 0.00 0.00 0.00 0.00
0.00 0.00 0.00 0.00 0.00 0.00 0.00 0.00 0.00 0.00 0.00 0.00 0.00 0.00 0.00 0.00 0.00 0.00 0.00 0.00 0.00 0.00 0.00 0.00 0.00 0.00 0.00 0.00 0.00 0.00 0.00 0.00 0.00 0.00 0.00 0.00 0.00 0.00 0.00 0.00 0.00 0.00
0.00 0.00 0.00 0.00 0.00 0.00 0.00 0.00 0.00 0.00 0.00 0.00 0.00 0.00 0.00 0.00 0.00 0.00 0.00 0.00 0.00 0.00 0.00 0.00 0.00 0.00 0.00 0.00 0.00 0.00 0.00 0.00 0.00 0.00 0.00 0.00 0.00 0.00 0.00 0.00 0.00 0.00
0.00 0.00 0.00 0.00 0.00 0.00 0.00 0.00 0.00 0.00 0.00 0.00 0.00 0.00 0.00 0.00 0.00 0.00 0.00 0.00 0.00 0.00 0.00 0.00 0.00 0.00 0.00 0.00 0.00 0.00 0.00 0.00 0.00 0.00 0.00 0.00 0.00 0.00 0.00 0.00 0.00 0.00
0.00 0.00 0.00 0.00 0.00 0.00 0.00 0.00 0.00 0.00 0.00 0.00 0.00 0.00 0.00 0.00 0.00 0.00 0.00 0.00 0.00 0.00 0.00 0.00 0.00 0.00 0.00 0.00 0.00 0.00 0.00 0.00 0.00 0.00 0.00 0.00 0.00 0.00 0.00 0.00 0.00 0.00
0.00 0.00 0.00 0.00 0.00 0.00 0.00 0.00 0.00 0.00 0.00 0.00 0.00 0.00 0.00 0.00 0.00 0.00 0.00 0.00 0.00 0.00 0.00 0.00 0.00 0.00 0.00 0.00 0.00 0.00 0.00 0.00 0.00 0.00 0.00 0.00 0.00 0.00 0.00 0.00 0.00 0.00
0.00 0.00 0.00 0.00 0.00 0.00 0.00 0.00 0.00 0.00 0.00 0.00 0.00 0.00 0.00 0.00 0.00 0.00 0.00 0.00 0.00 0.00 0.00 0.00 0.00 0.00 0.00 0.00 0.00 0.00 0.00 0.00 0.00 0.00 0.00 0.00 0.00 0.00 0.00 0.00 0.00 0.00
0.00 0.00 0.00 0.00 0.00 0.00 0.00 0.00 0.00 0.00 0.00 0.00 0.00 0.00 0.00 0.00 0.00 0.00 0.00 0.00 0.00 0.00 0.00 0.00 0.00 0.00 0.00 0.00 0.00 0.00 0.00 0.00 0.00 0.00 0.00 0.00 0.00 0.00 0.00 0.00 0.00 0.00
0.00 0.00 0.00 0.00 0.00 0.00 0.00 0.00 0.00 0.00 0.00 0.00 0.00 0.00 0.00 0.00 0.00 0.00 0.00 0.00 0.00 0.00 0.00 0.00 0.00 0.00 0.00 0.00 0.00 0.00 0.00 0.00 0.00 0.00 0.00 0.00 0.00 0.00 0.00 0.00 0.00 0.00
0.00 0.00 0.00 0.00 0.00 0.00 0.00 0.00 0.00 0.00 0.00 0.00 0.00 0.00 0.00 0.00 0.00 0.00 0.00 0.00 0.00 0.00 0.00 0.00 0.00 0.00 0.00 0.00 0.00 0.00 0.00 0.00 0.00 0.00 0.00 0.00 0.00 0.00 0.00 0.00 0.00 0.00
0.00 0.00 0.00 0.00 0.00 0.00 0.00 0.00 0.00 0.00 0.00 0.00 0.00 0.00 0.00 0.00 0.00 0.00 0.00 0.00 0.00 0.00 0.00 0.00 0.00 0.00 0.00 0.00 0.00 0.00 0.00 0.00 0.00 0.00 0.00 0.00 0.00 0.00 0.00 0.00 0.00 0.00
0.00 0.00 0.00 0.00 0.00 0.00 0.00 0.00 0.00 0.00 0.00 0.00 0.00 0.00 0.00 0.00 0.00 0.00 0.00 0.00 0.00 0.00 0.00 0.00 0.00 0.00 0.00 0.00 0.00 0.00 0.00 0.00 0.00 0.00 0.00 0.00 0.00 0.00 0.00 0.00 0.00 0.00
0.00 0.00 0.00 0.00 0.00 0.00 0.00 0.00 0.00 0.00 0.00 0.00 0.00 0.00 0.00 0.00 0.00 0.00 0.00 0.00 0.00 0.00 0.00 0.00 0.00 0.00 0.00 0.00 0.00 0.00 0.00 0.00 0.00 0.00 0.00 0.00 0.00 0.00 0.00 0.00 0.00 0.00
0.00 0.00 0.00 0.00 0.00 0.00 0.00 0.00 0.00 0.00 0.00 0.00 0.00 0.00 0.00 0.00 0.00 0.00 0.00 0.00 0.00 0.00 0.00 0.00 0.00 0.00 0.00 0.00 0.00 0.00 0.00 0.00 0.00 0.00 0.00 0.00 0.00 0.00 0.00 0.00 0.00 0.00
0.00 0.00 0.00 0.00 0.00 0.00 0.00 0.00 0.00 0.00 0.00 0.00 0.00 0.00 0.00 0.00 0.00 0.00 0.00 0.00 0.00 0.00 0.00 0.00 0.00 0.00 0.00 0.00 0.00 0.00 0.00 0.00 0.00 0.00 0.00 0.00 0.00 0.00 0.00 0.00 0.00 0.00
0.00 0.00 0.00 0.00 0.00 0.00 0.00 0.00 0.00 0.00 0.00 0.00 0.00 0.00 0.00 0.00 0.00 0.00 0.00 0.00 0.00 0.00 0.00 0.00 0.00 0.00 0.00 0.00 0.00 0.00 0.00 0.00 0.00 0.00 0.00 0.00 0.00 0.00 0.00 0.00 0.00 0.00
0.00 0.00 0.00 0.00 0.00 0.00 0.00 0.00 0.00 0.00 0.00 0.00 0.00 0.00 0.00 0.00 0.00 0.00 0.00 0.00 0.00 0.00 0.00 0.00 0.00 0.00 0.00 0.00 0.00 0.00 0.00 0.00 0.00 0.00 0.00 0.00 0.00 0.00 0.00 0.00 0.00 0.00
0.00 0.00 0.00 0.00 0.00 0.00 0.00 0.00 0.00 0.00 0.00 0.00 0.00 0.00 0.00 0.00 0.00 0.00 0.00 0.00 0.00 0.00 0.00 0.00 0.00 0.00 0.00 0.00 0.00 0.00 0.00 0.00 0.00 0.00 0.00 0.00 0.00 0.00 0.00 0.00 0.00 0.00
0.00 0.00 0.00 0.00 0.00 0.00 0.00 0.00 0.00 0.00 0.00 0.00 0.00 0.00 0.00 0.00 0.00 0.00 0.00 0.00 0.00 0.00 0.00 0.00 0.00 0.00 0.00 0.00 0.00 0.00 0.00 0.00 0.00 0.00 0.00 0.00 0.00 0.00 0.00 0.00 0.00 0.00
0.00 0.00 0.00 0.00 0.00 0.00 0.00 0.00 0.00 0.00 0.00 0.00 0.00 0.00 0.00 0.00 0.00 0.00 0.00 0.00 0.00 0.00 0.00 0.00 0.00 0.00 0.00 0.00 0.00 0.00 0.00 0.00 0.00 0.00 0.00 0.00 0.00 0.00 0.00 0.00 0.00 0.00
0.00 0.00 0.00 0.00 0.00 0.00 0.00 0.00 0.00 0.00 0.00 0.00 0.00 0.00 0.00 0.00 0.00 0.00 0.00 0.00 0.00 0.00 0.00 0.00 0.00 0.00 0.00 0.00 0.00 0.00 0.00 0.00 0.00 0.00 0.00 0.00 0.00 0.00 0.00 0.00 0.00 0.00
0.00 0.00 0.00 0.00 0.00 0.00 0.00 0.00 0.00 0.00 0.00 0.00 0.00 0.00 0.00 0.00 0.00 0.00 0.00 0.00 0.00 0.00 0.00 0.00 0.00 0.00 0.00 0.00 0.00 0.00 0.00 0.00 0.00 0.00 0.00 0.00 0.00 0.00 0.00 0.00 0.00 0.00
MSLP
1012.81 1013.09 1013.41 1013.65 1013.81 1013.85 1014.09 1014.41 1014.57 1014.85 1015.05 1015.25 1015.57 1015.65 1015.73 1015.69 1015.77 1016.01 1016.13 1016.33 1016.53 1016.73 1016.85 1016.97 1017.05 1017.25 1017.37 1017.53 1017.69 1017.89 1018.09 1018.21 1018.29 1018.33 1018.45 1018.61 1018.81 1018.93 1019.13 1019.21 1019.29 1019.17
1012.53 1012.73 1012.97 1013.25 1013.53 1013.65 1013.81 1013.89 1014.17 1014.37 1014.65 1014.81 1014.93 1015.13 1015.25 1015.45 1015.57 1015.69 1015.97 1016.17 1016.29 1016.49 1016.57 1016.77 1016.89 1017.01 1017.21 1017.41 1017.57 1017.85 1018.01 1018.13 1018.29 1018.13 1018.41 1018.53 1018.61 1018.77 1018.93 1018.97 1019.09 1019.09
1012.25 1012.57 1012.85 1013.13 1013.25 1013.33 1013.45 1013.61 1013.81 1014.01 1014.25 1014.37 1014.57 1014.81 1015.05 1015.05 1015.37 1015.45 1015.61 1015.85 1016.13 1016.29 1016.45 1016.53 1016.69 1016.77 1016.97 1017.13 1017.33 1017.61 1017.85 1018.01 1018.17 1018.01 1018.21 1018.37 1018.45 1018.69 1018.69 1018.73 1018.89 1018.97
1011.97 1012.13 1012.37 1012.57 1012.73 1013.01 1013.17 1013.53 1013.73 1013.81 1013.93 1014.37 1014.45 1014.37 1014.57 1014.73 1014.97 1015.25 1015.41 1015.57 1015.89 1016.05 1016.17 1016.33 1016.45 1016.53 1016.69 1016.89 1017.13 1017.41 1017.49 1017.65 1017.65 1017.77 1018.05 1018.17 1018.25 1018.29 1018.45 1018.53 1018.61 1018.77
1011.61 1011.93 1012.09 1012.29 1012.41 1012.65 1012.97 1013.33 1013.53 1013.61 1013.73 1013.73 1013.93 1014.17 1014.37 1014.57 1014.81 1015.01 1015.21 1015.45 1015.57 1015.85 1015.97 1016.17 1016.21 1016.33 1016.41 1016.69 1016.85 1017.21 1017.29 1017.49 1017.49 1017.61 1017.89 1018.09 1018.01 1018.13 1018.17 1018.33 1018.53 1018.65
1011.21 1011.49 1011.77 1012.09 1012.25 1012.53 1012.81 1012.97 1013.09 1013.29 1013.41 1013.61 1013.65 1013.73 1013.97 1014.13 1014.45 1014.69 1014.89 1015.21 1015.33 1015.53 1015.77 1015.89 1016.09 1016.13 1016.21 1016.41 1016.65 1016.85 1017.01 1017.25 1017.25 1017.41 1017.69 1017.85 1017.89 1017.85 1017.93 1018.13 1018.29 1018.49
1010.85 1011.17 1011.53 1011.73 1012.09 1012.25 1012.53 1012.65 1012.77 1012.89 1013.05 1013.05 1013.25 1013.61 1013.69 1014.01 1014.17 1014.29 1014.49 1014.73 1015.01 1015.25 1015.45 1015.65 1015.85 1016.01 1016.01 1016.17 1016.41 1016.61 1016.65 1016.77 1016.93 1017.13 1017.41 1017.49 1017.61 1017.81 1017.73 1017.89 1018.05 1018.17
1010.33 1010.61 1010.97 1011.33 1011.77 1012.01 1012.25 1012.37 1012.53 1012.69 1012.73 1012.97 1013.29 1013.21 1013.33 1013.61 1013.77 1013.97 1014.13 1014.41 1014.69 1014.93 1015.09 1015.25 1015.41 1015.61 1015.73 1015.89 1016.17 1016.33 1016.41 1016.41 1016.69 1016.93 1017.13 1017.25 1017.37 1017.61 1017.61 1017.57 1017.65 1017.89
1010.01 1010.45 1010.73 1011.13 1011.49 1011.69 1011.93 1012.09 1012.25 1012.37 1012.45 1012.81 1012.97 1013.05 1013.05 1013.21 1013.41 1013.57 1013.81 1014.05 1014.33 1014.53 1014.77 1014.93 1015.01 1015.25 1015.33 1015.53 1015.73 1015.93 1016.09 1016.17 1016.21 1016.49 1016.77 1016.97 1017.13 1017.13 1017.17 1017.17 1017.45 1017.53
1009.77 1010.05 1010.49 1010.85 1011.21 1011.25 1011.53 1011.61 1011.77 1012.01 1012.13 1012.45 1012.57 1012.73 1013.01 1012.97 1013.05 1013.29 1013.53 1013.81 1014.05 1014.25 1014.37 1014.49 1014.69 1014.81 1014.97 1015.05 1015.25 1015.45 1015.69 1015.85 1015.93 1016.05 1016.17 1016.29 1016.45 1016.57 1016.69 1016.89 1016.93 1017.13
1009.33 1009.65 1010.09 1010.37 1010.61 1010.81 1011.05 1011.21 1011.41 1011.65 1011.85 1012.09 1012.29 1012.57 1012.61 1012.77 1012.93 1012.97 1013.29 1013.53 1013.73 1013.81 1013.93 1014.05 1014.13 1014.29 1014.57 1014.69 1014.77 1014.89 1015.17 1015.37 1015.53 1015.65 1015.73 1015.77 1015.81 1015.93 1016.05 1016.21 1016.41 1016.53
1008.85 1009.17 1009.45 1009.69 1010.01 1010.29 1010.53 1010.77 1011.01 1011.25 1011.49 1011.61 1011.81 1012.17 1012.25 1012.37 1012.57 1012.73 1012.85 1013.09 1013.09 1013.17 1013.29 1013.45 1013.57 1013.81 1014.01 1014.17 1014.37 1014.57 1014.77 1014.93 1015.01 1015.17 1015.21 1015.29 1015.37 1015.45 1015.57 1015.69 1015.89 1015.93
1008.33 1008.53 1008.73 1009.09 1009.41 1009.69 1009.97 1010.29 1010.57 1010.73 1010.97 1011.25 1011.29 1011.53 1011.81 1012.05 1012.09 1012.29 1012.33 1012.57 1012.65 1012.73 1012.93 1012.97 1013.13 1013.33 1013.61 1013.81 1013.97 1014.17 1014.33 1014.53 1014.69 1014.77 1014.85 1014.93 1014.97 1015.01 1015.05 1015.25 1015.41 1015.49
1007.69 1007.85 1008.17 1008.45 1008.73 1009.13 1009.45 1009.69 1009.97 1010.21 1010.41 1010.57 1010.81 1011.13 1011.33 1011.45 1011.65 1011.89 1011.93 1012.05 1012.17 1012.33 1012.33 1012.45 1012.77 1013.05 1013.21 1013.37 1013.49 1013.65 1013.85 1014.05 1014.17 1014.37 1014.53 1014.65 1014.61 1014.65 1014.69 1014.81 1014.93 1015.05
1007.05 1007.41 1007.69 1008.09 1008.41 1008.81 1009.13 1009.33 1009.49 1009.73 1009.93 1010.13 1010.33 1010.57 1010.69 1010.81 1011.01 1011.29 1011.65 1011.85 1011.81 1011.93 1012.05 1012.13 1012.37 1012.57 1012.65 1012.81 1013.05 1013.21 1013.25 1013.53 1013.69 1013.89 1014.09 1014.37 1014.45 1014.41 1014.41 1014.49 1014.61 1014.65
1006.57 1006.97 1007.33 1007.65 1008.09 1008.45 1008.69 1008.93 1009.21 1009.41 1009.61 1009.85 1009.97 1010.09 1010.25 1010.45 1010.69 1010.89 1011.09 1011.33 1011.61 1011.65 1011.69 1011.81 1011.89 1011.89 1011.89 1012.05 1012.17 1012.41 1012.77 1012.97 1013.21 1013.45 1013.65 1013.89 1014.17 1014.29 1014.25 1014.21 1014.17 1014.21
1006.25 1006.61 1006.93 1007.37 1007.57 1007.97 1008.29 1008.57 1008.85 1009.09 1009.37 1009.53 1009.65 1009.77 1009.97 1010.13 1010.33 1010.61 1010.69 1010.77 1011.01 1011.21 1011.37 1011.33 1011.33 1011.25 1011.29 1011.57 1011.77 1011.89 1012.21 1012.61 1012.93 1013.05 1013.13 1013.41 1013.65 1013.85 1014.01 1013.89 1013.77 1013.69
1005.81 1006.21 1006.65 1006.97 1007.33 1007.65 1007.89 1008.21 1008.53 1008.85 1009.05 1009.21 1009.37 1009.53 1009.61 1009.73 1010.05 1010.09 1010.17 1010.29 1010.45 1010.65 1010.81 1010.77 1010.77 1010.57 1010.81 1011.09 1011.33 1011.61 1011.85 1012.05 1012.33 1012.61 1012.73 1012.89 1013.01 1013.21 1013.33 1013.49 1013.53 1013.53
1005.29 1005.77 1006.17 1006.57 1006.85 1007.17 1007.53 1007.89 1008.21 1008.49 1008.73 1008.93 1009.09 1009.01 1009.29 1009.61 1009.53 1009.65 1009.77 1009.77 1009.97 1010.21 1010.29 1010.21 1010.17 1009.97 1010.41 1010.65 1010.93 1011.21 1011.49 1011.73 1011.81 1011.97 1012.25 1012.33 1012.49 1012.69 1012.93 1013.09 1013.17 1013.25
1004.81 1005.25 1005.69 1006.01 1006.33 1006.73 1007.09 1007.49 1007.81 1008.01 1008.09 1008.29 1008.53 1008.81 1009.05 1009.09 1009.09 1009.21 1009.17 1009.41 1009.49 1009.65 1009.73 1009.65 1009.61 1009.53 1009.97 1010.25 1010.53 1010.77 1011.05 1011.49 1011.41 1011.49 1011.69 1011.81 1012.01 1012.17 1012.33 1012.49 1012.49 1012.65
1004.37 1004.81 1005.25 1005.57 1005.85 1006.21 1006.61 1006.93 1007.17 1007.45 1007.77 1007.89 1008.09 1008.33 1008.57 1008.65 1008.61 1008.77 1008.73 1008.81 1008.97 1009.05 1009.25 1009.25 1008.97 1009.01 1009.49 1009.77 1010.09 1010.37 1010.65 1011.13 1011.17 1011.25 1011.33 1011.41 1011.41 1011.49 1011.61 1011.69 1011.77 1011.93
1003.89 1004.41 1004.81 1005.09 1005.45 1005.77 1006.17 1006.45 1006.65 1006.93 1007.25 1007.37 1007.73 1007.89 1007.89 1008.01 1008.13 1008.21 1008.45 1008.57 1008.53 1008.69 1008.93 1008.93 1008.53 1008.65 1009.01 1009.33 1009.61 1010.01 1010.49 1011.09 1011.13 1011.17 1011.13 1011.01 1010.97 1010.97 1011.01 1011.01 1011.13 1011.29
1003.33 1003.85 1004.29 1004.61 1004.93 1005.33 1005.69 1005.97 1006.29 1006.53 1006.69 1006.85 1007.33 1007.37 1007.57 1007.69 1007.69 1007.77 1007.73 1008.01 1008.21 1008.37 1008.53 1008.45 1008.33 1008.29 1008.61 1008.93 1009.37 1009.81 1010.61 1010.77 1010.81 1010.89 1010.85 1010.77 1010.57 1010.45 1010.49 1010.49 1010.53 1010.61
1002.69 1003.13 1003.69 1004.05 1004.41 1004.81 1005.13 1005.33 1005.45 1005.65 1005.97 1006.09 1006.61 1006.89 1007.09 1006.97 1007.09 1007.37 1007.37 1007.45 1007.73 1007.89 1007.89 1008.17 1008.09 1008.01 1008.41 1008.81 1009.21 1009.61 1009.89 1010.13 1010.33 1010.49 1010.45 1010.37 1010.21 1010.05 1010.01 1010.05 1009.93 1010.01
1002.01 1002.41 1002.89 1003.33 1003.77 1004.09 1004.33 1004.73 1004.97 1005.17 1005.25 1005.45 1005.73 1005.97 1006.17 1006.29 1006.57 1006.81 1006.93 1006.97 1007.01 1007.17 1007.29 1007.65 1007.73 1007.85 1008.05 1008.37 1008.73 1009.01 1009.41 1009.53 1009.69 1010.01 1010.17 1010.01 1010.01 1009.93 1009.73 1009.69 1009.61 1009.57
1001.37 1001.85 1002.21 1002.61 1003.09 1003.41 1003.65 1003.97 1004.13 1004.53 1004.81 1005.09 1005.29 1005.45 1005.77 1005.97 1006.09 1006.29 1006.53 1006.49 1006.45 1006.65 1006.85 1006.97 1007.37 1007.49 1007.69 1007.93 1008.17 1008.49 1008.73 1008.93 1009.09 1009.57 1009.73 1009.65 1009.61 1009.61 1009.69 1009.45 1009.37 1009.33
Thickness
5824 5822 5822 5822 5821 5822 5822 5821 5820 5819 5818 5817 5816 5815 5816 5816 5816 5815 5813 5812 5811 5810 5809 5808 5807 5805 5804 5803 5801 5799 5797 5796 5795 5794 5793 5791 5789 5788 5787 5786 5785 5785
5824 5823 5823 5823 5822 5823 5823 5823 5822 5821 5820 5820 5819 5819 5818 5818 5817 5816 5815 5813 5812 5811 5810 5809 5808 5807 5805 5804 5802 5800 5798 5797 5796 5795 5793 5792 5791 5789 5788 5787 5786 5786
5824 5824 5824 5824 5824 5824 5824 5824 5823 5823 5822 5821 5821 5820 5819 5819 5818 5817 5816 5815 5813 5812 5811 5810 5809 5808 5806 5806 5804 5801 5799 5798 5796 5796 5795 5793 5792 5790 5790 5789 5787 5787
5825 5825 5825 5825 5825 5825 5824 5823 5823 5823 5823 5822 5822 5822 5822 5821 5819 5818 5817 5816 5815 5813 5812 5811 5810 5809 5808 5806 5805 5802 5801 5800 5799 5798 5796 5794 5794 5793 5792 5791 5789 5789
5827 5826 5826 5826 5826 5825 5824 5824 5822 5823 5824 5823 5824 5824 5823 5822 5820 5819 5817 5816 5815 5814 5813 5812 5811 5811 5809 5807 5806 5804 5802 5801 5801 5800 5797 5796 5795 5795 5794 5793 5791 5790
5830 5828 5828 5827 5827 5826 5824 5824 5824 5825 5825 5825 5826 5825 5824 5823 5822 5821 5819 5817 5816 5815 5813 5812 5812 5811 5810 5808 5806 5805 5804 5803 5802 5801 5799 5798 5797 5797 5796 5794 5792 5791
5832 5831 5829 5828 5827 5826 5825 5825 5825 5825 5826 5826 5826 5826 5825 5824 5823 5822 5821 5819 5817 5816 5814 5814 5812 5812 5811 5810 5807 5806 5806 5805 5804 5802 5800 5800 5799 5797 5797 5796 5795 5793
5835 5833 5831 5829 5828 5826 5826 5826 5826 5826 5827 5827 5826 5827 5827 5826 5824 5824 5822 5821 5819 5817 5816 5815 5814 5813 5812 5811 5809 5808 5807 5806 5805 5803 5801 5801 5800 5798 5799 5799 5797 5796
5836 5835 5833 5830 5829 5827 5827 5827 5828 5828 5828 5827 5827 5827 5828 5827 5826 5825 5823 5822 5820 5818 5818 5816 5815 5814 5813 5813 5812 5810 5809 5809 5807 5806 5803 5802 5801 5801 5801 5800 5799 5798
5837 5836 5834 5832 5831 5830 5830 5829 5829 5830 5829 5828 5828 5828 5828 5827 5827 5826 5824 5822 5820 5819 5819 5818 5817 5816 5815 5814 5814 5813 5811 5810 5810 5808 5807 5805 5804 5804 5804 5803 5802 5800
5839 5838 5836 5835 5834 5833 5832 5832 5831 5831 5831 5830 5829 5828 5828 5827 5827 5826 5825 5823 5822 5821 5821 5820 5819 5818 5816 5816 5816 5815 5814 5812 5812 5811 5810 5809 5808 5808 5807 5806 5805 5803
5842 5841 5839 5838 5836 5835 5835 5834 5833 5833 5832 5831 5831 5829 5829 5829 5828 5827 5827 5825 5825 5825 5823 5822 5822 5820 5819 5818 5817 5816 5815 5814 5813 5813 5812 5812 5811 5811 5810 5809 5807 5806
5845 5844 5843 5841 5840 5839 5838 5837 5836 5835 5835 5834 5834 5833 5831 5830 5830 5829 5829 5828 5827 5827 5826 5825 5824 5822 5821 5819 5818 5817 5816 5815 5815 5815 5814 5814 5813 5813 5813 5811 5809 5808
5849 5847 5846 5845 5843 5842 5840 5840 5839 5838 5837 5837 5836 5835 5834 5833 5833 5831 5831 5831 5830 5829 5828 5828 5826 5823 5822 5821 5820 5819 5818 5817 5817 5816 5816 5815 5814 5815 5814 5813 5811 5810
5851 5850 5849 5847 5845 5843 5842 5841 5841 5839 5839 5838 5837 5837 5837 5836 5835 5834 5832 5831 5831 5831 5831 5830 5828 5826 5826 5824 5823 5822 5821 5820 5819 5819 5817 5815 5815 5815 5815 5814 5814 5812
5853 5851 5850 5848 5847 5845 5843 5842 5841 5840 5839 5838 5838 5838 5838 5837 5836 5835 5834 5833 5832 5831 5832 5831 5830 5830 5830 5829 5828 5826 5825 5823 5821 5820 5819 5817 5816 5816 5815 5816 5815 5815
5854 5853 5851 5850 5848 5846 5844 5843 5841 5840 5839 5839 5838 5839 5839 5838 5837 5836 5836 5836 5834 5834 5833 5833 5834 5835 5834 5832 5831 5830 5827 5825 5823 5822 5821 5820 5819 5817 5817 5818 5818 5818
5857 5855 5852 5851 5849 5846 5845 5843 5841 5840 5839 5838 5839 5840 5839 5839 5839 5838 5838 5838 5837 5836 5836 5836 5837 5839 5838 5835 5833 5831 5830 5828 5826 5825 5824 5824 5822 5821 5821 5820 5819 5820
5860 5857 5854 5852 5851 5848 5846 5844 5842 5840 5841 5840 5840 5840 5839 5839 5839 5840 5841 5840 5839 5839 5838 5839 5841 5841 5840 5837 5835 5834 5831 5830 5829 5828 5827 5827 5826 5824 5823 5822 5821 5821
5862 5859 5857 5854 5853 5850 5847 5845 5844 5843 5842 5841 5841 5840 5839 5840 5841 5841 5842 5842 5842 5842 5841 5842 5844 5844 5842 5839 5837 5836 5833 5831 5831 5831 5830 5829 5829 5827 5826 5825 5825 5824
5864 5861 5858 5856 5854 5852 5849 5848 5846 5845 5843 5843 5842 5841 5841 5842 5842 5843 5844 5844 5844 5844 5843 5844 5846 5846 5843 5841 5839 5837 5834 5832 5831 5832 5831 5831 5832 5831 5829 5829 5829 5827
5866 5862 5860 5858 5856 5854 5851 5850 5848 5847 5845 5844 5843 5842 5842 5843 5843 5844 5845 5845 5845 5845 5844 5845 5848 5848 5845 5842 5840 5837 5834 5831 5830 5831 5832 5832 5833 5833 5832 5833 5832 5830
5868 5865 5862 5859 5857 5855 5853 5851 5850 5848 5847 5846 5844 5843 5843 5844 5844 5846 5846 5845 5845 5845 5844 5845 5847 5848 5845 5842 5840 5835 5832 5830 5830 5830 5831 5832 5834 5834 5834 5834 5834 5833
5871 5868 5865 5862 5860 5858 5856 5854 5853 5851 5849 5849 5847 5846 5846 5847 5847 5846 5846 5847 5847 5846 5847 5846 5846 5847 5844 5841 5839 5836 5833 5832 5831 5830 5830 5832 5834 5834 5834 5835 5834 5834
5874 5872 5869 5865 5863 5861 5859 5857 5855 5854 5853 5852 5851 5850 5850 5849 5849 5847 5847 5849 5850 5849 5849 5847 5846 5846 5845 5842 5840 5838 5836 5836 5834 5832 5832 5833 5834 5834 5834 5835 5834 5834
5877 5875 5872 5869 5866 5864 5862 5860 5858 5857 5855 5853 5852 5852 5851 5850 5850 5850 5849 5851 5851 5851 5851 5850 5848 5847 5845 5844 5843 5841 5839 5838 5836 5834 5834 5834 5834 5834 5834 5833 5834 5833